Time,TemperatureF,DewpointF,PressureIn,WindDirection,WindDirectionDegrees,WindSpeedMPH,WindSpeedGustMPH,Humidity,HourlyPrecipIn,Conditions,Clouds,dailyrainin,SoftwareType,DateUTC
2013-01-02 00:00:00,19.2,9.3,30.01,SW,236,1.0,2.0,65,0.00,,,0.00,meteohub,2013-01-02 05:00:00,
2013-01-02 00:01:00,19.2,9.3,30.01,SW,236,0.0,2.0,65,0.00,,,0.00,meteohub,2013-01-02 05:01:00,
2013-01-02 00:06:00,19.2,9.3,30.01,SW,236,0.0,2.0,65,0.00,,,0.00,meteohub,2013-01-02 05:06:00,
2013-01-02 00:11:00,19.0,9.1,30.01,SW,236,0.0,2.0,65,0.00,,,0.00,meteohub,2013-01-02 05:11:00,
2013-01-02 00:16:00,18.9,9.0,30.01,SW,236,0.0,2.0,65,0.00,,,0.00,meteohub,2013-01-02 05:16:00,
2013-01-02 00:21:00,18.9,9.3,30.01,SW,236,1.0,2.0,66,0.00,,,0.00,meteohub,2013-01-02 05:21:00,
2013-01-02 00:26:00,18.7,9.1,30.01,SW,236,1.0,2.0,66,0.00,,,0.00,meteohub,2013-01-02 05:26:00,
2013-01-02 00:31:00,18.5,9.0,30.01,SW,236,1.0,2.0,66,0.00,,,0.00,meteohub,2013-01-02 05:31:00,
2013-01-02 00:36:00,18.3,9.1,30.00,SW,223,1.0,2.0,67,0.00,,,0.00,meteohub,2013-01-02 05:36:00,
2013-01-02 00:41:00,18.1,9.0,30.01,SW,223,0.0,2.0,67,0.00,,,0.00,meteohub,2013-01-02 05:41:00,
2013-01-02 00:46:00,18.1,9.0,30.01,SW,223,1.0,2.0,67,0.00,,,0.00,meteohub,2013-01-02 05:46:00,
2013-01-02 00:51:00,18.1,9.3,30.01,SW,223,0.0,2.0,68,0.00,,,0.00,meteohub,2013-01-02 05:51:00,
2013-01-02 00:56:00,18.0,9.1,30.00,SW,223,0.0,2.0,68,0.00,,,0.00,meteohub,2013-01-02 05:56:00,
2013-01-02 01:01:00,18.0,9.1,30.00,SW,223,0.0,1.0,68,0.00,,,0.00,meteohub,2013-01-02 06:01:00,
2013-01-02 01:06:00,17.8,9.3,30.01,SW,223,0.0,1.0,69,0.00,,,0.00,meteohub,2013-01-02 06:06:00,
2013-01-02 01:11:00,17.4,9.0,30.01,SW,223,1.0,1.0,69,0.00,,,0.00,meteohub,2013-01-02 06:11:00,
2013-01-02 01:16:00,17.2,9.1,30.01,SW,223,1.0,1.0,70,0.00,,,0.00,meteohub,2013-01-02 06:16:00,
2013-01-02 01:21:00,17.1,9.0,30.01,SW,223,0.0,2.0,70,0.00,,,0.00,meteohub,2013-01-02 06:21:00,
2013-01-02 01:26:00,16.7,9.0,30.01,SW,223,0.0,2.0,71,0.00,,,0.00,meteohub,2013-01-02 06:26:00,
2013-01-02 01:31:00,16.5,8.8,30.01,SW,223,0.0,2.0,71,0.00,,,0.00,meteohub,2013-01-02 06:31:00,
2013-01-02 01:36:00,16.5,9.1,30.01,SW,223,0.0,2.0,72,0.00,,,0.00,meteohub,2013-01-02 06:36:00,
2013-01-02 01:41:00,16.3,9.0,30.02,SW,223,0.0,2.0,72,0.00,,,0.00,meteohub,2013-01-02 06:41:00,
2013-01-02 01:46:00,16.2,8.8,30.02,SW,223,1.0,2.0,72,0.00,,,0.00,meteohub,2013-01-02 06:46:00,
2013-01-02 01:51:00,16.0,8.8,30.03,SW,223,0.0,2.0,73,0.00,,,0.00,meteohub,2013-01-02 06:51:00,
2013-01-02 01:56:00,15.8,8.6,30.03,SW,223,0.0,2.0,73,0.00,,,0.00,meteohub,2013-01-02 06:56:00,
2013-01-02 02:01:00,15.4,8.6,30.03,SW,223,0.0,2.0,74,0.00,,,0.00,meteohub,2013-01-02 07:01:00,
2013-01-02 02:06:00,15.3,8.4,30.03,SW,223,0.0,1.0,74,0.00,,,0.00,meteohub,2013-01-02 07:06:00,
2013-01-02 02:11:00,15.1,9.0,30.04,SW,223,0.0,1.0,76,0.00,,,0.00,meteohub,2013-01-02 07:11:00,
2013-01-02 02:16:00,15.1,9.0,30.04,SW,223,0.0,1.0,76,0.00,,,0.00,meteohub,2013-01-02 07:16:00,
2013-01-02 02:21:00,15.1,9.0,30.03,SW,223,0.0,1.0,76,0.00,,,0.00,meteohub,2013-01-02 07:21:00,
2013-01-02 02:26:00,15.3,9.1,30.03,SW,223,0.0,1.0,76,0.00,,,0.00,meteohub,2013-01-02 07:26:00,
2013-01-02 02:31:00,15.4,9.3,30.03,SW,223,1.0,1.0,76,0.00,,,0.00,meteohub,2013-01-02 07:31:00,
2013-01-02 02:36:00,15.6,9.5,30.03,SW,223,1.0,2.0,76,0.00,,,0.00,meteohub,2013-01-02 07:36:00,
2013-01-02 02:41:00,15.8,9.3,30.03,SW,223,0.0,2.0,75,0.00,,,0.00,meteohub,2013-01-02 07:41:00,
2013-01-02 02:46:00,15.6,9.1,30.03,SW,223,0.0,2.0,75,0.00,,,0.00,meteohub,2013-01-02 07:46:00,
2013-01-02 02:51:00,15.4,9.0,30.03,SW,223,0.0,1.0,75,0.00,,,0.00,meteohub,2013-01-02 07:51:00,
2013-01-02 02:57:00,15.1,8.6,30.02,WSW,256,0.0,0.0,75,0.00,,,0.00,meteohub,2013-01-02 07:57:00,
2013-01-02 03:02:00,14.7,8.8,30.02,West,271,0.0,2.0,77,0.00,,,0.00,meteohub,2013-01-02 08:02:00,
2013-01-02 03:07:00,14.5,9.0,30.02,West,271,0.0,2.0,78,0.00,,,0.00,meteohub,2013-01-02 08:07:00,
2013-01-02 03:12:00,14.5,9.0,30.02,West,271,1.0,2.0,78,0.00,,,0.00,meteohub,2013-01-02 08:12:00,
2013-01-02 03:17:00,14.5,9.0,30.02,West,271,1.0,2.0,78,0.00,,,0.00,meteohub,2013-01-02 08:17:00,
2013-01-02 03:22:00,14.7,9.1,30.02,West,271,0.0,2.0,78,0.00,,,0.00,meteohub,2013-01-02 08:22:00,
2013-01-02 03:27:00,14.7,8.8,30.02,West,271,0.0,2.0,77,0.00,,,0.00,meteohub,2013-01-02 08:27:00,
2013-01-02 03:32:00,14.7,8.8,30.03,West,271,1.0,1.0,77,0.00,,,0.00,meteohub,2013-01-02 08:32:00,
2013-01-02 03:37:00,14.9,9.0,30.02,West,271,0.0,1.0,77,0.00,,,0.00,meteohub,2013-01-02 08:37:00,
2013-01-02 03:42:00,15.1,9.1,30.02,West,271,0.0,1.0,77,0.00,,,0.00,meteohub,2013-01-02 08:42:00,
2013-01-02 03:47:00,15.1,9.1,30.02,West,271,0.0,1.0,77,0.00,,,0.00,meteohub,2013-01-02 08:47:00,
2013-01-02 03:52:00,15.1,9.1,30.02,West,271,1.0,1.0,77,0.00,,,0.00,meteohub,2013-01-02 08:52:00,
2013-01-02 03:57:00,15.3,9.1,30.02,West,271,1.0,2.0,76,0.00,,,0.00,meteohub,2013-01-02 08:57:00,
2013-01-02 04:02:00,15.3,9.1,30.02,West,271,1.0,2.0,76,0.00,,,0.00,meteohub,2013-01-02 09:02:00,
2013-01-02 04:07:00,15.3,9.1,30.01,West,271,0.0,2.0,76,0.00,,,0.00,meteohub,2013-01-02 09:07:00,
2013-01-02 04:12:00,15.3,9.1,30.02,West,271,1.0,2.0,76,0.00,,,0.00,meteohub,2013-01-02 09:12:00,
2013-01-02 04:17:00,15.1,9.0,30.02,West,271,1.0,2.0,76,0.00,,,0.00,meteohub,2013-01-02 09:17:00,
2013-01-02 04:22:00,15.1,9.0,30.01,West,271,1.0,2.0,76,0.00,,,0.00,meteohub,2013-01-02 09:22:00,
2013-01-02 04:27:00,14.9,8.8,30.01,West,271,0.0,2.0,76,0.00,,,0.00,meteohub,2013-01-02 09:27:00,
2013-01-02 04:32:00,14.5,8.4,30.02,West,271,1.0,2.0,76,0.00,,,0.00,meteohub,2013-01-02 09:32:00,
2013-01-02 04:37:00,14.4,8.2,30.02,West,271,0.0,2.0,76,0.00,,,0.00,meteohub,2013-01-02 09:37:00,
2013-01-02 04:42:00,13.8,7.7,30.02,West,271,1.0,1.0,76,0.00,,,0.00,meteohub,2013-01-02 09:42:00,
2013-01-02 04:47:00,13.5,7.9,30.02,West,271,1.0,2.0,78,0.00,,,0.00,meteohub,2013-01-02 09:47:00,
2013-01-02 04:52:00,13.3,8.1,30.02,West,271,0.0,2.0,79,0.00,,,0.00,meteohub,2013-01-02 09:52:00,
2013-01-02 04:57:00,13.3,7.7,30.03,West,271,0.0,2.0,78,0.00,,,0.00,meteohub,2013-01-02 09:57:00,
2013-01-02 05:01:00,12.9,7.3,30.03,West,271,0.0,2.0,78,0.00,,,0.00,meteohub,2013-01-02 10:01:00,
2013-01-02 05:07:00,12.7,7.5,30.03,West,271,0.0,2.0,79,0.00,,,0.00,meteohub,2013-01-02 10:07:00,
2013-01-02 05:12:00,12.4,7.3,30.03,West,271,0.0,2.0,80,0.00,,,0.00,meteohub,2013-01-02 10:12:00,
2013-01-02 05:17:00,12.0,7.0,30.03,West,271,0.0,2.0,80,0.00,,,0.00,meteohub,2013-01-02 10:17:00,
2013-01-02 05:22:00,11.8,7.3,30.03,West,271,0.0,2.0,82,0.00,,,0.00,meteohub,2013-01-02 10:22:00,
2013-01-02 05:27:00,11.7,7.5,30.03,West,271,0.0,1.0,83,0.00,,,0.00,meteohub,2013-01-02 10:27:00,
2013-01-02 05:32:00,11.5,7.0,30.03,West,271,0.0,1.0,82,0.00,,,0.00,meteohub,2013-01-02 10:32:00,
2013-01-02 05:37:00,11.5,7.0,30.03,West,271,0.0,2.0,82,0.00,,,0.00,meteohub,2013-01-02 10:37:00,
2013-01-02 05:42:00,11.5,7.0,30.03,West,271,0.0,2.0,82,0.00,,,0.00,meteohub,2013-01-02 10:42:00,
2013-01-02 05:47:00,11.5,7.0,30.03,West,271,0.0,2.0,82,0.00,,,0.00,meteohub,2013-01-02 10:47:00,
2013-01-02 05:52:00,11.5,6.8,30.03,West,271,0.0,2.0,81,0.00,,,0.00,meteohub,2013-01-02 10:52:00,
2013-01-02 05:57:00,11.3,6.6,30.03,West,271,0.0,2.0,81,0.00,,,0.00,meteohub,2013-01-02 10:57:00,
2013-01-02 06:02:00,11.1,7.0,30.03,West,271,0.0,1.0,83,0.00,,,0.00,meteohub,2013-01-02 11:02:00,
2013-01-02 06:07:00,11.5,7.3,30.03,West,271,0.0,1.0,83,0.00,,,0.00,meteohub,2013-01-02 11:07:00,
2013-01-02 06:12:00,11.7,7.2,30.03,West,271,0.0,2.0,82,0.00,,,0.00,meteohub,2013-01-02 11:12:00,
2013-01-02 06:17:00,11.8,7.2,30.03,West,271,0.0,2.0,81,0.00,,,0.00,meteohub,2013-01-02 11:17:00,
2013-01-02 06:22:00,11.7,6.6,30.03,West,271,0.0,2.0,80,0.00,,,0.00,meteohub,2013-01-02 11:22:00,
2013-01-02 06:27:00,11.5,6.4,30.03,West,271,0.0,1.0,80,0.00,,,0.00,meteohub,2013-01-02 11:27:00,
2013-01-02 06:32:00,11.1,6.4,30.02,West,271,1.0,1.0,81,0.00,,,0.00,meteohub,2013-01-02 11:32:00,
2013-01-02 06:37:00,10.8,6.4,30.02,West,271,0.0,2.0,82,0.00,,,0.00,meteohub,2013-01-02 11:37:00,
2013-01-02 06:42:00,10.6,6.3,30.02,West,271,0.0,2.0,82,0.00,,,0.00,meteohub,2013-01-02 11:42:00,
2013-01-02 06:47:00,10.4,6.3,30.02,WSW,241,2.0,2.0,83,0.00,,,0.00,meteohub,2013-01-02 11:47:00,
2013-01-02 06:52:00,10.4,6.3,30.02,WSW,241,1.0,3.0,83,0.00,,,0.00,meteohub,2013-01-02 11:52:00,
2013-01-02 06:57:00,10.8,6.8,30.02,WSW,241,0.0,3.0,84,0.00,,,0.00,meteohub,2013-01-02 11:57:00,
2013-01-02 07:02:00,10.9,6.8,30.02,WSW,241,1.0,3.0,83,0.00,,,0.00,meteohub,2013-01-02 12:02:00,
2013-01-02 07:07:00,11.1,7.0,30.02,WSW,241,0.0,2.0,83,0.00,,,0.00,meteohub,2013-01-02 12:07:00,
2013-01-02 07:12:00,10.9,6.6,30.02,WSW,241,0.0,2.0,82,0.00,,,0.00,meteohub,2013-01-02 12:12:00,
2013-01-02 07:17:00,10.8,6.4,30.01,WSW,241,0.0,2.0,82,0.00,,,0.00,meteohub,2013-01-02 12:17:00,
2013-01-02 07:22:00,10.4,6.1,30.01,WSW,241,0.0,2.0,82,0.00,,,0.00,meteohub,2013-01-02 12:22:00,
2013-01-02 07:27:00,10.2,6.1,30.01,WSW,241,0.0,2.0,83,0.00,,,0.00,meteohub,2013-01-02 12:27:00,
2013-01-02 07:32:00,10.0,5.9,30.01,WSW,241,0.0,1.0,83,0.00,,,0.00,meteohub,2013-01-02 12:32:00,
2013-01-02 07:37:00,9.9,6.1,30.01,WSW,241,0.0,1.0,84,0.00,,,0.00,meteohub,2013-01-02 12:37:00,
2013-01-02 07:42:00,9.9,6.3,30.01,WSW,241,0.0,2.0,85,0.00,,,0.00,meteohub,2013-01-02 12:42:00,
2013-01-02 07:47:00,10.0,6.4,30.01,WSW,241,1.0,2.0,85,0.00,,,0.00,meteohub,2013-01-02 12:47:00,
2013-01-02 07:52:00,10.0,6.3,30.01,WSW,241,0.0,2.0,84,0.00,,,0.00,meteohub,2013-01-02 12:52:00,
2013-01-02 07:57:00,10.2,6.4,30.00,WSW,241,0.0,2.0,84,0.00,,,0.00,meteohub,2013-01-02 12:57:00,
2013-01-02 08:02:00,10.4,6.6,30.00,WSW,241,0.0,2.0,84,0.00,,,0.00,meteohub,2013-01-02 13:02:00,
2013-01-02 08:07:00,10.8,6.8,30.01,WSW,241,1.0,2.0,84,0.00,,,0.00,meteohub,2013-01-02 13:07:00,
2013-01-02 08:12:00,10.9,7.0,30.01,WSW,241,0.0,2.0,84,0.00,,,0.00,meteohub,2013-01-02 13:12:00,
2013-01-02 08:17:00,11.3,7.2,30.01,WSW,241,0.0,2.0,83,0.00,,,0.00,meteohub,2013-01-02 13:17:00,
2013-01-02 08:22:00,11.5,7.0,30.01,WSW,241,0.0,2.0,82,0.00,,,0.00,meteohub,2013-01-02 13:22:00,
2013-01-02 08:27:00,11.7,7.2,30.01,WSW,241,0.0,0.0,82,0.00,,,0.00,meteohub,2013-01-02 13:27:00,
2013-01-02 08:32:00,11.8,7.7,30.01,WSW,241,0.0,0.0,83,0.00,,,0.00,meteohub,2013-01-02 13:32:00,
2013-01-02 08:37:00,12.0,7.5,30.01,WSW,241,0.0,1.0,82,0.00,,,0.00,meteohub,2013-01-02 13:37:00,
2013-01-02 08:42:00,12.6,8.1,30.01,WSW,241,0.0,1.0,82,0.00,,,0.00,meteohub,2013-01-02 13:42:00,
2013-01-02 08:47:00,12.7,8.2,30.01,WSW,241,0.0,1.0,82,0.00,,,0.00,meteohub,2013-01-02 13:47:00,
2013-01-02 08:52:00,13.1,8.4,30.02,WSW,241,0.0,1.0,81,0.00,,,0.00,meteohub,2013-01-02 13:52:00,
2013-01-02 08:57:00,13.5,8.8,30.02,WSW,241,0.0,0.0,81,0.00,,,0.00,meteohub,2013-01-02 13:57:00,
2013-01-02 09:02:00,14.0,9.3,30.02,WSW,241,0.0,0.0,81,0.00,,,0.00,meteohub,2013-01-02 14:02:00,
2013-01-02 09:07:00,14.7,9.7,30.02,WSW,241,0.0,0.0,80,0.00,,,0.00,meteohub,2013-01-02 14:07:00,
2013-01-02 09:12:00,15.4,9.9,30.02,WSW,241,0.0,0.0,78,0.00,,,0.00,meteohub,2013-01-02 14:12:00,
2013-01-02 09:17:00,16.9,10.6,30.03,WSW,241,0.0,0.0,76,0.00,,,0.00,meteohub,2013-01-02 14:17:00,
2013-01-02 09:22:00,17.8,11.1,30.03,WSW,241,0.0,1.0,75,0.00,,,0.00,meteohub,2013-01-02 14:22:00,
2013-01-02 09:27:00,18.7,11.8,30.03,WSW,241,0.0,1.0,74,0.00,,,0.00,meteohub,2013-01-02 14:27:00,
2013-01-02 09:32:00,19.2,11.7,30.03,WSW,241,0.0,2.0,72,0.00,,,0.00,meteohub,2013-01-02 14:32:00,
2013-01-02 09:37:00,19.8,12.2,30.03,WSW,241,0.0,2.0,72,0.00,,,0.00,meteohub,2013-01-02 14:37:00,
2013-01-02 09:42:00,20.5,12.0,30.04,WSW,241,0.0,2.0,69,0.00,,,0.00,meteohub,2013-01-02 14:42:00,
2013-01-02 09:47:00,21.0,12.2,30.04,NW,318,0.0,1.0,68,0.00,,,0.00,meteohub,2013-01-02 14:47:00,
2013-01-02 09:52:00,21.6,12.6,30.04,NW,318,0.0,2.0,68,0.00,,,0.00,meteohub,2013-01-02 14:52:00,
2013-01-02 09:57:00,22.3,12.7,30.04,ESE,114,1.0,2.0,66,0.00,,,0.00,meteohub,2013-01-02 14:57:00,
2013-01-02 10:02:00,23.0,12.6,30.04,ESE,115,0.0,2.0,64,0.00,,,0.00,meteohub,2013-01-02 15:02:00,
2013-01-02 10:07:00,23.7,12.9,30.04,SW,221,3.0,3.0,63,0.00,,,0.00,meteohub,2013-01-02 15:07:00,
2013-01-02 10:12:00,25.0,13.5,30.04,SW,235,3.0,4.0,61,0.00,,,0.00,meteohub,2013-01-02 15:12:00,
2013-01-02 10:17:00,25.9,13.8,30.03,SSE,168,0.0,5.0,60,0.00,,,0.00,meteohub,2013-01-02 15:17:00,
2013-01-02 10:22:00,26.8,14.4,30.04,SW,219,2.0,5.0,59,0.00,,,0.00,meteohub,2013-01-02 15:22:00,
2013-01-02 10:27:00,27.5,14.7,30.04,SW,219,0.0,5.0,58,0.00,,,0.00,meteohub,2013-01-02 15:27:00,
2013-01-02 10:32:00,27.9,13.8,30.03,WSW,242,5.0,5.0,55,0.00,,,0.00,meteohub,2013-01-02 15:32:00,
2013-01-02 10:37:00,28.2,14.2,30.03,West,270,1.0,5.0,55,0.00,,,0.00,meteohub,2013-01-02 15:37:00,
2013-01-02 10:43:00,28.2,14.2,30.03,WNW,299,1.0,5.0,55,0.00,,,0.00,meteohub,2013-01-02 15:43:00,
2013-01-02 10:48:00,28.8,14.2,30.03,West,265,0.0,9.0,54,0.00,,,0.00,meteohub,2013-01-02 15:48:00,
2013-01-02 10:53:00,29.1,14.2,30.03,NNW,346,0.0,9.0,53,0.00,,,0.00,meteohub,2013-01-02 15:53:00,
2013-01-02 10:58:00,29.3,14.7,30.02,West,267,0.0,9.0,54,0.00,,,0.00,meteohub,2013-01-02 15:58:00,
2013-01-02 11:03:00,29.7,14.5,30.02,WSW,237,0.0,6.0,53,0.00,,,0.00,meteohub,2013-01-02 16:03:00,
2013-01-02 11:08:00,30.0,14.9,30.02,NNW,330,0.0,6.0,53,0.00,,,0.00,meteohub,2013-01-02 16:08:00,
2013-01-02 11:13:00,30.6,15.1,30.02,WSW,238,1.0,13.0,52,0.00,,,0.00,meteohub,2013-01-02 16:13:00,
2013-01-02 11:18:00,30.4,14.9,30.02,WNW,284,0.0,13.0,52,0.00,,,0.00,meteohub,2013-01-02 16:18:00,
2013-01-02 11:23:00,30.6,15.1,30.01,SW,225,5.0,7.0,52,0.00,,,0.00,meteohub,2013-01-02 16:23:00,
2013-01-02 11:28:00,30.6,15.4,30.01,WSW,253,1.0,7.0,53,0.00,,,0.00,meteohub,2013-01-02 16:28:00,
2013-01-02 11:33:00,30.7,15.6,30.01,WNW,292,1.0,9.0,53,0.00,,,0.00,meteohub,2013-01-02 16:33:00,
2013-01-02 11:38:00,30.7,15.3,30.01,WSW,237,0.0,9.0,52,0.00,,,0.00,meteohub,2013-01-02 16:38:00,
2013-01-02 11:43:00,30.9,15.4,30.01,West,279,0.0,6.0,52,0.00,,,0.00,meteohub,2013-01-02 16:43:00,
2013-01-02 11:48:00,30.9,15.4,30.00,West,270,0.0,4.0,52,0.00,,,0.00,meteohub,2013-01-02 16:48:00,
2013-01-02 11:53:00,31.3,15.6,30.00,SW,220,4.0,4.0,52,0.00,,,0.00,meteohub,2013-01-02 16:53:00,
2013-01-02 11:58:00,31.1,15.1,30.00,SW,230,4.0,6.0,51,0.00,,,0.00,meteohub,2013-01-02 16:58:00,
2013-01-02 12:03:00,30.9,15.4,29.99,WNW,292,2.0,10.0,52,0.00,,,0.00,meteohub,2013-01-02 17:03:00,
2013-01-02 12:08:00,31.3,16.2,29.99,WNW,286,0.0,10.0,53,0.00,,,0.00,meteohub,2013-01-02 17:08:00,
2013-01-02 12:13:00,31.5,15.8,30.00,WNW,293,0.0,7.0,52,0.00,,,0.00,meteohub,2013-01-02 17:13:00,
2013-01-02 12:18:00,31.3,15.3,29.99,North,0,0.0,4.0,51,0.00,,,0.00,meteohub,2013-01-02 17:18:00,
2013-01-02 12:23:00,30.7,15.3,29.99,WNW,299,0.0,8.0,52,0.00,,,0.00,meteohub,2013-01-02 17:23:00,
2013-01-02 12:28:00,30.6,15.4,29.99,North,355,2.0,8.0,53,0.00,,,0.00,meteohub,2013-01-02 17:28:00,
2013-01-02 12:33:00,30.0,14.0,29.99,North,5,2.0,8.0,51,0.00,,,0.00,meteohub,2013-01-02 17:33:00,
2013-01-02 12:38:00,29.8,15.6,29.99,West,269,0.0,11.0,55,0.00,,,0.00,meteohub,2013-01-02 17:38:00,
2013-01-02 12:43:00,29.8,15.3,29.99,WNW,302,2.0,11.0,54,0.00,,,0.00,meteohub,2013-01-02 17:43:00,
2013-01-02 12:48:00,29.8,15.6,29.99,WSW,257,0.0,11.0,55,0.00,,,0.00,meteohub,2013-01-02 17:48:00,
2013-01-02 12:53:00,29.8,15.6,29.98,WNW,298,2.0,5.0,55,0.00,,,0.00,meteohub,2013-01-02 17:53:00,
2013-01-02 12:58:00,29.8,15.3,29.98,NW,326,0.0,5.0,54,0.00,,,0.00,meteohub,2013-01-02 17:58:00,
2013-01-02 13:03:00,30.0,15.8,29.98,NNW,338,1.0,6.0,55,0.00,,,0.00,meteohub,2013-01-02 18:03:00,
2013-01-02 13:08:00,30.0,16.2,29.98,WNW,300,0.0,6.0,56,0.00,,,0.00,meteohub,2013-01-02 18:08:00,
2013-01-02 13:13:00,30.0,15.8,29.98,WNW,302,1.0,6.0,55,0.00,,,0.00,meteohub,2013-01-02 18:13:00,
2013-01-02 13:18:00,30.0,15.8,29.99,West,262,2.0,6.0,55,0.00,,,0.00,meteohub,2013-01-02 18:18:00,
2013-01-02 13:23:00,30.0,15.8,29.99,WNW,286,2.0,6.0,55,0.00,,,0.00,meteohub,2013-01-02 18:23:00,
2013-01-02 13:28:00,29.8,15.6,29.99,West,269,0.0,8.0,55,0.00,,,0.00,meteohub,2013-01-02 18:28:00,
2013-01-02 13:33:00,30.0,16.2,29.99,West,267,0.0,8.0,56,0.00,,,0.00,meteohub,2013-01-02 18:33:00,
2013-01-02 13:38:00,30.0,16.2,29.99,WSW,238,0.0,8.0,56,0.00,,,0.00,meteohub,2013-01-02 18:38:00,
2013-01-02 13:43:00,30.2,16.9,29.99,West,265,0.0,8.0,57,0.00,,,0.00,meteohub,2013-01-02 18:43:00,
2013-01-02 13:48:00,30.2,16.3,29.99,WSW,244,2.0,7.0,56,0.00,,,0.00,meteohub,2013-01-02 18:48:00,
2013-01-02 13:53:00,30.4,16.5,29.99,WNW,287,0.0,7.0,56,0.00,,,0.00,meteohub,2013-01-02 18:53:00,
2013-01-02 13:58:00,30.6,16.3,29.99,WNW,297,3.0,5.0,55,0.00,,,0.00,meteohub,2013-01-02 18:58:00,
2013-01-02 14:03:00,30.6,16.3,29.99,West,279,2.0,5.0,55,0.00,,,0.00,meteohub,2013-01-02 19:03:00,
2013-01-02 14:08:00,30.6,16.3,30.00,West,269,2.0,6.0,55,0.00,,,0.00,meteohub,2013-01-02 19:08:00,
2013-01-02 14:13:00,30.6,16.3,30.01,West,259,3.0,6.0,55,0.00,,,0.00,meteohub,2013-01-02 19:13:00,
2013-01-02 14:18:00,30.6,16.7,30.01,West,281,0.0,9.0,56,0.00,,,0.00,meteohub,2013-01-02 19:18:00,
2013-01-02 14:23:00,30.4,16.5,30.01,SW,232,4.0,9.0,56,0.00,,,0.00,meteohub,2013-01-02 19:23:00,
2013-01-02 14:28:00,30.4,16.5,30.01,WNW,282,0.0,7.0,56,0.00,,,0.00,meteohub,2013-01-02 19:28:00,
2013-01-02 14:33:00,30.4,16.5,30.02,WNW,299,1.0,5.0,56,0.00,,,0.00,meteohub,2013-01-02 19:33:00,
2013-01-02 14:38:00,30.2,16.3,30.02,WNW,290,3.0,8.0,56,0.00,,,0.00,meteohub,2013-01-02 19:38:00,
2013-01-02 14:43:00,30.2,16.9,30.02,NW,315,0.0,8.0,57,0.00,,,0.00,meteohub,2013-01-02 19:43:00,
2013-01-02 14:48:00,30.0,16.7,30.03,WNW,294,3.0,8.0,57,0.00,,,0.00,meteohub,2013-01-02 19:48:00,
2013-01-02 14:54:00,30.0,16.7,30.03,NE,37,3.0,5.0,57,0.00,,,0.00,meteohub,2013-01-02 19:54:00,
2013-01-02 14:59:00,30.0,17.1,30.03,NW,314,0.0,5.0,58,0.00,,,0.00,meteohub,2013-01-02 19:59:00,
2013-01-02 15:04:00,29.8,16.9,30.04,WNW,294,2.0,5.0,58,0.00,,,0.00,meteohub,2013-01-02 20:04:00,
2013-01-02 15:09:00,29.8,16.9,30.04,West,261,3.0,3.0,58,0.00,,,0.00,meteohub,2013-01-02 20:09:00,
2013-01-02 15:14:00,29.7,17.1,30.04,West,281,3.0,4.0,59,0.00,,,0.00,meteohub,2013-01-02 20:14:00,
2013-01-02 15:19:00,29.7,16.7,30.04,WNW,300,1.0,4.0,58,0.00,,,0.00,meteohub,2013-01-02 20:19:00,
2013-01-02 15:24:00,29.7,17.1,30.04,West,277,0.0,4.0,59,0.00,,,0.00,meteohub,2013-01-02 20:24:00,
2013-01-02 15:29:00,29.7,17.1,30.04,SW,225,4.0,7.0,59,0.00,,,0.00,meteohub,2013-01-02 20:29:00,
2013-01-02 15:34:00,29.7,17.1,30.05,WNW,283,1.0,7.0,59,0.00,,,0.00,meteohub,2013-01-02 20:34:00,
2013-01-02 15:39:00,29.5,16.9,30.05,West,273,4.0,7.0,59,0.00,,,0.00,meteohub,2013-01-02 20:39:00,
2013-01-02 15:44:00,29.5,16.9,30.05,WNW,289,0.0,7.0,59,0.00,,,0.00,meteohub,2013-01-02 20:44:00,
2013-01-02 15:49:00,29.5,17.2,30.05,WNW,303,0.0,7.0,60,0.00,,,0.00,meteohub,2013-01-02 20:49:00,
2013-01-02 15:54:00,29.3,17.1,30.06,NW,321,0.0,6.0,60,0.00,,,0.00,meteohub,2013-01-02 20:54:00,
2013-01-02 15:59:00,29.1,16.9,30.06,WNW,300,1.0,5.0,60,0.00,,,0.00,meteohub,2013-01-02 20:59:00,
2013-01-02 16:04:00,29.1,16.9,30.06,WNW,292,3.0,5.0,60,0.00,,,0.00,meteohub,2013-01-02 21:04:00,
2013-01-02 16:09:00,29.1,16.9,30.06,West,277,1.0,10.0,60,0.00,,,0.00,meteohub,2013-01-02 21:09:00,
2013-01-02 16:14:00,29.1,16.9,30.05,WNW,295,1.0,10.0,60,0.00,,,0.00,meteohub,2013-01-02 21:14:00,
2013-01-02 16:19:00,28.9,16.9,30.06,South,191,1.0,10.0,60,0.00,,,0.00,meteohub,2013-01-02 21:19:00,
2013-01-02 16:24:00,28.8,16.2,30.06,West,272,1.0,4.0,59,0.00,,,0.00,meteohub,2013-01-02 21:24:00,
2013-01-02 16:29:00,28.8,16.7,30.06,WSW,257,3.0,7.0,60,0.00,,,0.00,meteohub,2013-01-02 21:29:00,
2013-01-02 16:34:00,28.6,16.5,30.06,NW,319,1.0,8.0,60,0.00,,,0.00,meteohub,2013-01-02 21:34:00,
2013-01-02 16:39:00,28.6,16.5,30.07,West,261,3.0,8.0,60,0.00,,,0.00,meteohub,2013-01-02 21:39:00,
2013-01-02 16:44:00,28.6,16.5,30.06,WSW,250,4.0,8.0,60,0.00,,,0.00,meteohub,2013-01-02 21:44:00,
2013-01-02 16:49:00,28.4,16.3,30.06,WNW,295,1.0,7.0,60,0.00,,,0.00,meteohub,2013-01-02 21:49:00,
2013-01-02 16:54:00,28.2,16.5,30.06,West,272,3.0,6.0,61,0.00,,,0.00,meteohub,2013-01-02 21:54:00,
2013-01-02 16:59:00,28.0,16.3,30.06,WNW,302,0.0,6.0,61,0.00,,,0.00,meteohub,2013-01-02 21:59:00,
2013-01-02 17:04:00,27.9,15.8,30.07,NW,306,0.0,3.0,60,0.00,,,0.00,meteohub,2013-01-02 22:04:00,
2013-01-02 17:09:00,27.9,16.5,30.07,WNW,284,0.0,4.0,62,0.00,,,0.00,meteohub,2013-01-02 22:09:00,
2013-01-02 17:14:00,27.7,16.3,30.07,West,267,0.0,4.0,62,0.00,,,0.00,meteohub,2013-01-02 22:14:00,
2013-01-02 17:19:00,27.7,16.3,30.07,WNW,292,1.0,4.0,62,0.00,,,0.00,meteohub,2013-01-02 22:19:00,
2013-01-02 17:24:00,27.3,16.0,30.07,WNW,292,0.0,3.0,62,0.00,,,0.00,meteohub,2013-01-02 22:24:00,
2013-01-02 17:29:00,27.1,15.8,30.08,WNW,292,0.0,3.0,62,0.00,,,0.00,meteohub,2013-01-02 22:29:00,
2013-01-02 17:34:00,27.0,15.6,30.08,WNW,292,0.0,3.0,62,0.00,,,0.00,meteohub,2013-01-02 22:34:00,
2013-01-02 17:39:00,27.0,16.0,30.08,NNW,347,2.0,2.0,63,0.00,,,0.00,meteohub,2013-01-02 22:39:00,
2013-01-02 17:44:00,27.0,16.0,30.09,NNW,348,0.0,4.0,63,0.00,,,0.00,meteohub,2013-01-02 22:44:00,
2013-01-02 17:49:00,26.8,16.2,30.09,WNW,297,0.0,4.0,64,0.00,,,0.00,meteohub,2013-01-02 22:49:00,
2013-01-02 17:54:00,26.8,16.5,30.09,North,9,0.0,4.0,65,0.00,,,0.00,meteohub,2013-01-02 22:54:00,
2013-01-02 17:59:00,26.4,16.9,30.09,North,355,2.0,3.0,67,0.00,,,0.00,meteohub,2013-01-02 22:59:00,
2013-01-02 18:04:00,26.4,16.9,30.10,NNW,338,1.0,6.0,67,0.00,,,0.00,meteohub,2013-01-02 23:04:00,
2013-01-02 18:09:00,26.4,17.2,30.10,North,0,2.0,6.0,68,0.00,,,0.00,meteohub,2013-01-02 23:09:00,
2013-01-02 18:14:00,26.2,17.1,30.10,NW,321,1.0,6.0,68,0.00,,,0.00,meteohub,2013-01-02 23:14:00,
2013-01-02 18:19:00,26.2,17.4,30.10,NNW,337,0.0,6.0,69,0.00,,,0.00,meteohub,2013-01-02 23:19:00,
2013-01-02 18:24:00,26.1,17.2,30.10,WNW,299,0.0,6.0,69,0.00,,,0.00,meteohub,2013-01-02 23:24:00,
2013-01-02 18:29:00,25.9,17.4,30.10,West,264,1.0,5.0,70,0.00,,,0.00,meteohub,2013-01-02 23:29:00,
2013-01-02 18:34:00,25.5,17.1,30.11,WNW,282,0.0,5.0,70,0.00,,,0.00,meteohub,2013-01-02 23:34:00,
2013-01-02 18:39:00,25.5,17.1,30.11,NW,311,0.0,3.0,70,0.00,,,0.00,meteohub,2013-01-02 23:39:00,
2013-01-02 18:44:00,25.3,16.9,30.11,West,280,1.0,4.0,70,0.00,,,0.00,meteohub,2013-01-02 23:44:00,
2013-01-02 18:49:00,25.3,16.9,30.12,WNW,296,1.0,4.0,70,0.00,,,0.00,meteohub,2013-01-02 23:49:00,
2013-01-02 18:54:00,25.3,16.9,30.11,WNW,294,0.0,5.0,70,0.00,,,0.00,meteohub,2013-01-02 23:54:00,
2013-01-02 18:59:00,25.2,16.7,30.12,NNW,336,1.0,5.0,70,0.00,,,0.00,meteohub,2013-01-02 23:59:00,
2013-01-02 19:04:00,25.2,16.7,30.12,NW,304,1.0,5.0,70,0.00,,,0.00,meteohub,2013-01-03 00:04:00,
2013-01-02 19:09:00,25.0,16.3,30.12,NW,304,0.0,4.0,69,0.00,,,0.00,meteohub,2013-01-03 00:09:00,
2013-01-02 19:14:00,25.0,16.5,30.12,NW,313,1.0,4.0,70,0.00,,,0.00,meteohub,2013-01-03 00:14:00,
2013-01-02 19:19:00,25.0,16.0,30.13,West,280,0.0,2.0,68,0.00,,,0.00,meteohub,2013-01-03 00:19:00,
2013-01-02 19:24:00,24.8,15.8,30.13,WNW,292,1.0,4.0,68,0.00,,,0.00,meteohub,2013-01-03 00:24:00,
2013-01-02 19:29:00,24.8,15.4,30.13,NW,313,0.0,4.0,67,0.00,,,0.00,meteohub,2013-01-03 00:29:00,
2013-01-02 19:35:00,24.6,15.3,30.13,North,0,3.0,4.0,67,0.00,,,0.00,meteohub,2013-01-03 00:35:00,
2013-01-02 19:40:00,24.6,15.3,30.13,NNE,25,3.0,3.0,67,0.00,,,0.00,meteohub,2013-01-03 00:40:00,
2013-01-02 19:45:00,24.6,15.3,30.12,WNW,296,0.0,6.0,67,0.00,,,0.00,meteohub,2013-01-03 00:45:00,
2013-01-02 19:50:00,24.4,14.7,30.13,NNW,327,0.0,6.0,66,0.00,,,0.00,meteohub,2013-01-03 00:50:00,
2013-01-02 19:55:00,24.4,14.4,30.13,WNW,294,1.0,4.0,65,0.00,,,0.00,meteohub,2013-01-03 00:55:00,
2013-01-02 20:00:00,24.4,14.4,30.13,West,279,1.0,5.0,65,0.00,,,0.00,meteohub,2013-01-03 01:00:00,
2013-01-02 20:05:00,24.3,14.2,30.14,West,275,0.0,5.0,65,0.00,,,0.00,meteohub,2013-01-03 01:05:00,
2013-01-02 20:10:00,24.3,14.2,30.14,NNW,345,1.0,5.0,65,0.00,,,0.00,meteohub,2013-01-03 01:10:00,
2013-01-02 20:15:00,24.3,13.8,30.14,WNW,286,0.0,4.0,64,0.00,,,0.00,meteohub,2013-01-03 01:15:00,
2013-01-02 20:20:00,24.1,14.0,30.14,NNW,338,3.0,4.0,65,0.00,,,0.00,meteohub,2013-01-03 01:20:00,
2013-01-02 20:25:00,24.1,13.6,30.14,WNW,282,1.0,7.0,64,0.00,,,0.00,meteohub,2013-01-03 01:25:00,
2013-01-02 20:30:00,24.1,13.6,30.14,WNW,296,1.0,7.0,64,0.00,,,0.00,meteohub,2013-01-03 01:30:00,
2013-01-02 20:35:00,23.9,13.1,30.13,NW,307,0.0,7.0,63,0.00,,,0.00,meteohub,2013-01-03 01:35:00,
2013-01-02 20:40:00,23.9,13.1,30.14,WNW,282,2.0,6.0,63,0.00,,,0.00,meteohub,2013-01-03 01:40:00,
2013-01-02 20:45:00,23.9,13.5,30.14,WNW,296,0.0,7.0,64,0.00,,,0.00,meteohub,2013-01-03 01:45:00,
2013-01-02 20:50:00,23.7,12.9,30.14,NW,316,1.0,7.0,63,0.00,,,0.00,meteohub,2013-01-03 01:50:00,
2013-01-02 20:55:00,23.7,12.9,30.14,NNW,348,3.0,5.0,63,0.00,,,0.00,meteohub,2013-01-03 01:55:00,
2013-01-02 21:00:00,23.7,12.6,30.14,WNW,291,0.0,6.0,62,0.00,,,0.00,meteohub,2013-01-03 02:00:00,
2013-01-02 21:05:00,23.7,12.6,30.14,NNW,342,1.0,6.0,62,0.00,,,0.00,meteohub,2013-01-03 02:05:00,
2013-01-02 21:10:00,23.5,12.4,30.14,WNW,302,1.0,6.0,62,0.00,,,0.00,meteohub,2013-01-03 02:10:00,
2013-01-02 21:15:00,23.4,12.2,30.14,NNW,342,0.0,4.0,62,0.00,,,0.00,meteohub,2013-01-03 02:15:00,
2013-01-02 21:20:00,23.4,11.8,30.14,West,267,2.0,4.0,61,0.00,,,0.00,meteohub,2013-01-03 02:20:00,
2013-01-02 21:25:00,23.2,11.7,30.15,NNW,348,1.0,6.0,61,0.00,,,0.00,meteohub,2013-01-03 02:25:00,
2013-01-02 21:30:00,23.2,11.7,30.15,WNW,298,1.0,8.0,61,0.00,,,0.00,meteohub,2013-01-03 02:30:00,
2013-01-02 21:35:00,23.0,11.8,30.16,WNW,282,0.0,8.0,62,0.00,,,0.00,meteohub,2013-01-03 02:35:00,
2013-01-02 21:40:00,22.8,11.8,30.15,West,269,0.0,8.0,62,0.00,,,0.00,meteohub,2013-01-03 02:40:00,
2013-01-02 21:45:00,22.6,12.0,30.16,WNW,291,1.0,5.0,63,0.00,,,0.00,meteohub,2013-01-03 02:45:00,
2013-01-02 21:50:00,22.5,10.2,30.15,NW,322,0.0,4.0,59,0.00,,,0.00,meteohub,2013-01-03 02:50:00,
2013-01-02 21:55:00,22.5,11.1,30.16,West,281,0.0,7.0,61,0.00,,,0.00,meteohub,2013-01-03 02:55:00,
2013-01-02 22:01:00,22.3,10.9,30.16,West,268,2.0,7.0,61,0.00,,,0.00,meteohub,2013-01-03 03:01:00,
2013-01-02 22:06:00,22.1,10.8,30.16,WNW,295,1.0,5.0,61,0.00,,,0.00,meteohub,2013-01-03 03:06:00,
2013-01-02 22:11:00,21.9,10.6,30.16,West,263,0.0,5.0,61,0.00,,,0.00,meteohub,2013-01-03 03:11:00,
2013-01-02 22:15:00,21.7,10.8,30.16,West,262,2.0,5.0,62,0.00,,,0.00,meteohub,2013-01-03 03:15:00,
2013-01-02 22:20:00,21.7,9.7,30.16,WNW,294,3.0,5.0,59,0.00,,,0.00,meteohub,2013-01-03 03:20:00,
2013-01-02 22:25:00,21.6,8.6,30.16,West,281,2.0,5.0,57,0.00,,,0.00,meteohub,2013-01-03 03:25:00,
2013-01-02 22:31:00,21.6,7.2,30.16,North,5,2.0,7.0,53,0.00,,,0.00,meteohub,2013-01-03 03:31:00,
2013-01-02 22:37:00,21.6,7.2,30.16,WNW,299,0.0,12.0,53,0.00,,,0.00,meteohub,2013-01-03 03:37:00,
2013-01-02 22:42:00,21.6,6.6,30.16,WSW,248,0.0,12.0,52,0.00,,,0.00,meteohub,2013-01-03 03:42:00,
2013-01-02 22:47:00,21.4,6.4,30.17,WNW,291,2.0,12.0,52,0.00,,,0.00,meteohub,2013-01-03 03:47:00,
2013-01-02 22:52:00,21.2,5.5,30.17,NNE,13,0.0,8.0,50,0.00,,,0.00,meteohub,2013-01-03 03:52:00,
2013-01-02 22:57:00,21.2,5.5,30.16,NW,314,1.0,8.0,50,0.00,,,0.00,meteohub,2013-01-03 03:57:00,
2013-01-02 23:02:00,21.0,4.8,30.17,WSW,252,0.0,8.0,49,0.00,,,0.00,meteohub,2013-01-03 04:02:00,
2013-01-02 23:07:00,21.0,4.8,30.17,WSW,255,1.0,7.0,49,0.00,,,0.00,meteohub,2013-01-03 04:07:00,
2013-01-02 23:12:00,20.8,3.7,30.17,North,0,2.0,7.0,47,0.00,,,0.00,meteohub,2013-01-03 04:12:00,
2013-01-02 23:17:00,20.8,3.7,30.17,WNW,292,2.0,4.0,47,0.00,,,0.00,meteohub,2013-01-03 04:17:00,
2013-01-02 23:22:00,20.7,3.2,30.17,NW,309,1.0,4.0,46,0.00,,,0.00,meteohub,2013-01-03 04:22:00,
2013-01-02 23:27:00,20.5,3.0,30.18,NNE,18,1.0,6.0,46,0.00,,,0.00,meteohub,2013-01-03 04:27:00,
2013-01-02 23:32:00,20.5,3.0,30.18,WNW,302,0.0,7.0,46,0.00,,,0.00,meteohub,2013-01-03 04:32:00,
2013-01-02 23:37:00,20.3,3.2,30.18,WNW,290,0.0,7.0,47,0.00,,,0.00,meteohub,2013-01-03 04:37:00,
2013-01-02 23:42:00,20.1,2.7,30.18,North,350,1.0,7.0,46,0.00,,,0.00,meteohub,2013-01-03 04:42:00,
2013-01-02 23:47:00,19.9,2.5,30.18,WNW,295,1.0,6.0,46,0.00,,,0.00,meteohub,2013-01-03 04:47:00,
2013-01-02 23:52:00,19.8,2.3,30.18,NW,307,0.0,4.0,46,0.00,,,0.00,meteohub,2013-01-03 04:52:00,
2013-01-02 23:57:00,19.8,2.8,30.18,North,0,1.0,4.0,47,0.00,,,0.00,meteohub,2013-01-03 04:57:00,